owner,sensor,date,latitude,longitude,vertical_datum,wind_speed,wind_to_direction,wind_speed_of_gust,qcFlag 
TCOON,ioos:station:TCOON:031:1,2009-05-01T00:00:00Z,28.4073,-96.7122,0.0,7.5,95.0,10.2,'11111222,11111222,11111222' 
TCOON,ioos:station:TCOON:031:1,2009-05-01T01:00:00Z,28.4073,-96.7122,0.0,8.4,99.0,10.3,'11111222,11111222,11111222' 
TCOON,ioos:station:TCOON:031:1,2009-05-01T03:00:00Z,28.4073,-96.7122,0.0,7.2,98.0,11.3,'11111222,11111222,11111222' 
TCOON,ioos:station:TCOON:031:1,2009-05-01T04:00:00Z,28.4073,-96.7122,0.0,6.6,104.0,9.1,'11111222,11111222,11111222' 
TCOON,ioos:station:TCOON:031:1,2009-05-01T05:00:00Z,28.4073,-96.7122,0.0,6.9,105.0,8.5,'11111222,11111222,11111222' 
TCOON,ioos:station:TCOON:031:1,2009-05-01T06:00:00Z,28.4073,-96.7122,0.0,5.6,117.0,8.4,'11111222,11111222,11111222' 
TCOON,ioos:station:TCOON:031:1,2009-05-01T07:00:00Z,28.4073,-96.7122,0.0,7.1,123.0,8.2,'11111222,11111222,11111222' 
TCOON,ioos:station:TCOON:031:1,2009-05-01T08:00:00Z,28.4073,-96.7122,0.0,8.3,120.0,9.2,'11111222,11111222,11111222' 
TCOON,ioos:station:TCOON:031:1,2009-05-01T09:00:00Z,28.4073,-96.7122,0.0,6.5,128.0,7.7,'11111222,11111222,11111222' 
TCOON,ioos:station:TCOON:031:1,2009-05-01T10:00:00Z,28.4073,-96.7122,0.0,6.2,126.0,8.8,'11111222,11111222,11111222' 
TCOON,ioos:station:TCOON:031:1,2009-05-01T11:00:00Z,28.4073,-96.7122,0.0,5.9,122.0,8.2,'11111222,11111222,11111222' 
TCOON,ioos:station:TCOON:031:1,2009-05-01T12:00:00Z,28.4073,-96.7122,0.0,6.2,119.0,7.9,'11111222,11111222,11111222' 
TCOON,ioos:station:TCOON:031:1,2009-05-01T13:00:00Z,28.4073,-96.7122,0.0,5.8,125.0,8.5,'11111222,11111222,11111222' 
TCOON,ioos:station:TCOON:031:1,2009-05-01T14:00:00Z,28.4073,-96.7122,0.0,7.6,124.0,9.9,'11111222,11111222,11111222' 
TCOON,ioos:station:TCOON:031:1,2009-05-01T15:00:00Z,28.4073,-96.7122,0.0,8.4,123.0,9.9,'11111222,11111222,11111222' 
TCOON,ioos:station:TCOON:031:1,2009-05-01T16:00:00Z,28.4073,-96.7122,0.0,8.5,134.0,10.9,'11111222,11111222,11111222' 
TCOON,ioos:station:TCOON:031:1,2009-05-01T17:00:00Z,28.4073,-96.7122,0.0,8.6,139.0,9.9,'11111222,11111222,11111222' 
TCOON,ioos:station:TCOON:031:1,2009-05-01T18:00:00Z,28.4073,-96.7122,0.0,8.4,139.0,9.8,'11111222,11111222,11111222' 
TCOON,ioos:station:TCOON:031:1,2009-05-01T19:00:00Z,28.4073,-96.7122,0.0,7.3,138.0,9.1,'11111222,11111222,11111222' 
TCOON,ioos:station:TCOON:031:1,2009-05-01T20:00:00Z,28.4073,-96.7122,0.0,8.3,133.0,10.1,'11111222,11111222,11111222' 
TCOON,ioos:station:TCOON:031:1,2009-05-01T21:00:00Z,28.4073,-96.7122,0.0,8.4,117.0,10.3,'11111222,11111222,11111222' 
TCOON,ioos:station:TCOON:031:1,2009-05-01T22:00:00Z,28.4073,-96.7122,0.0,6.9,112.0,10.5,'11111222,11111222,11111222' 
TCOON,ioos:station:TCOON:031:1,2009-05-01T23:00:00Z,28.4073,-96.7122,0.0,7.3,112.0,9.5,'11111222,11111222,11111222' 
TCOON,ioos:station:TCOON:031:1,2009-05-02T00:00:00Z,28.4073,-96.7122,0.0,7.8,111.0,9.2,'11111222,11111222,11111222' 
TCOON,ioos:station:TCOON:031:1,2009-05-02T01:00:00Z,28.4073,-96.7122,0.0,6.3,109.0,7.9,'11111222,11111222,11111222' 
TCOON,ioos:station:TCOON:031:1,2009-05-02T02:00:00Z,28.4073,-96.7122,0.0,6.3,107.0,8.4,'11111222,11111222,11111222' 
TCOON,ioos:station:TCOON:031:1,2009-05-02T03:00:00Z,28.4073,-96.7122,0.0,5.6,113.0,8.8,'11111222,11111222,11111222' 
TCOON,ioos:station:TCOON:031:1,2009-05-02T04:00:00Z,28.4073,-96.7122,0.0,5.2,105.0,6.8,'11111222,11111222,11111222' 
TCOON,ioos:station:TCOON:031:1,2009-05-02T05:00:00Z,28.4073,-96.7122,0.0,5.6,119.0,7.7,'11111222,11111222,11111222' 
TCOON,ioos:station:TCOON:031:1,2009-05-02T06:00:00Z,28.4073,-96.7122,0.0,8.7,119.0,10.8,'11111222,11111222,11111222' 
TCOON,ioos:station:TCOON:031:1,2009-05-02T07:00:00Z,28.4073,-96.7122,0.0,7.5,122.0,8.4,'11111222,11111222,11111222' 
TCOON,ioos:station:TCOON:031:1,2009-05-02T08:00:00Z,28.4073,-96.7122,0.0,6.7,118.0,8.0,'11111222,11111222,11111222' 
TCOON,ioos:station:TCOON:031:1,2009-05-02T09:00:00Z,28.4073,-96.7122,0.0,7.5,128.0,9.2,'11111222,11111222,11111222' 
TCOON,ioos:station:TCOON:031:1,2009-05-02T10:00:00Z,28.4073,-96.7122,0.0,7.2,134.0,8.9,'11111222,11111222,11111222' 
TCOON,ioos:station:TCOON:031:1,2009-05-02T11:00:00Z,28.4073,-96.7122,0.0,7.4,122.0,8.7,'11111222,11111222,11111222' 
TCOON,ioos:station:TCOON:031:1,2009-05-02T12:00:00Z,28.4073,-96.7122,0.0,7.8,112.0,10.1,'11111222,11111222,11111222' 
TCOON,ioos:station:TCOON:031:1,2009-05-02T13:00:00Z,28.4073,-96.7122,0.0,7.7,123.0,9.0,'11111222,11111222,11111222' 
TCOON,ioos:station:TCOON:031:1,2009-05-02T14:00:00Z,28.4073,-96.7122,0.0,8.4,125.0,9.9,'11111222,11111222,11111222' 
TCOON,ioos:station:TCOON:031:1,2009-05-02T15:00:00Z,28.4073,-96.7122,0.0,9.2,132.0,11.1,'11111222,11111222,11111222' 
TCOON,ioos:station:TCOON:031:1,2009-05-02T16:00:00Z,28.4073,-96.7122,0.0,10.7,124.0,12.1,'11111222,11111222,11111222' 
TCOON,ioos:station:TCOON:031:1,2009-05-02T17:00:00Z,28.4073,-96.7122,0.0,10.3,124.0,14.3,'11111222,11111222,11111222' 
TCOON,ioos:station:TCOON:031:1,2009-05-02T18:00:00Z,28.4073,-96.7122,0.0,10.0,132.0,12.2,'11111222,11111222,11111222' 
TCOON,ioos:station:TCOON:031:1,2009-05-02T19:00:00Z,28.4073,-96.7122,0.0,10.1,129.0,11.8,'11111222,11111222,11111222' 
TCOON,ioos:station:TCOON:031:1,2009-05-02T20:00:00Z,28.4073,-96.7122,0.0,11.6,119.0,13.1,'11111222,11111222,11111222' 
TCOON,ioos:station:TCOON:031:1,2009-05-02T21:00:00Z,28.4073,-96.7122,0.0,9.8,124.0,12.4,'11111222,11111222,11111222' 
TCOON,ioos:station:TCOON:031:1,2009-05-02T22:00:00Z,28.4073,-96.7122,0.0,8.9,120.0,10.8,'11111222,11111222,11111222' 
TCOON,ioos:station:TCOON:031:1,2009-05-02T23:00:00Z,28.4073,-96.7122,0.0,7.8,108.0,10.1,'11111222,11111222,11111222' 
TCOON,ioos:station:TCOON:031:1,2009-05-03T00:00:00Z,28.4073,-96.7122,0.0,8.0,116.0,9.7,'11111222,11111222,11111222' 
TCOON,ioos:station:TCOON:031:1,2009-05-03T01:00:00Z,28.4073,-96.7122,0.0,7.6,107.0,8.1,'11111222,11111222,11111222' 
TCOON,ioos:station:TCOON:031:1,2009-05-03T02:00:00Z,28.4073,-96.7122,0.0,7.5,106.0,9.8,'11111222,11111222,11111222' 
TCOON,ioos:station:TCOON:031:1,2009-05-03T03:00:00Z,28.4073,-96.7122,0.0,9.0,106.0,11.1,'11111222,11111222,11111222' 
TCOON,ioos:station:TCOON:031:1,2009-05-03T04:00:00Z,28.4073,-96.7122,0.0,8.9,117.0,13.1,'11111222,11111222,11111222' 
TCOON,ioos:station:TCOON:031:1,2009-05-03T05:00:00Z,28.4073,-96.7122,0.0,8.9,119.0,10.9,'11111222,11111222,11111222' 
TCOON,ioos:station:TCOON:031:1,2009-05-03T06:00:00Z,28.4073,-96.7122,0.0,6.2,137.0,8.3,'11111222,11111222,11111222' 
TCOON,ioos:station:TCOON:031:1,2009-05-03T07:00:00Z,28.4073,-96.7122,0.0,7.1,132.0,9.2,'11111222,11111222,11111222' 
TCOON,ioos:station:TCOON:031:1,2009-05-03T08:00:00Z,28.4073,-96.7122,0.0,7.8,132.0,9.2,'11111222,11111222,11111222' 
TCOON,ioos:station:TCOON:031:1,2009-05-03T09:00:00Z,28.4073,-96.7122,0.0,9.6,130.0,10.5,'11111222,11111222,11111222' 
TCOON,ioos:station:TCOON:031:1,2009-05-03T10:00:00Z,28.4073,-96.7122,0.0,9.2,127.0,11.0,'11111222,11111222,11111222' 
TCOON,ioos:station:TCOON:031:1,2009-05-03T11:00:00Z,28.4073,-96.7122,0.0,10.1,131.0,12.1,'11111222,11111222,11111222' 
TCOON,ioos:station:TCOON:031:1,2009-05-03T12:00:00Z,28.4073,-96.7122,0.0,8.1,133.0,10.6,'11111222,11111222,11111222' 
TCOON,ioos:station:TCOON:031:1,2009-05-03T13:00:00Z,28.4073,-96.7122,0.0,5.7,158.0,7.3,'11111222,11111222,11111222' 
TCOON,ioos:station:TCOON:031:1,2009-05-03T14:00:00Z,28.4073,-96.7122,0.0,5.8,170.0,6.6,'11111222,11111222,11111222' 
TCOON,ioos:station:TCOON:031:1,2009-05-03T15:00:00Z,28.4073,-96.7122,0.0,6.2,154.0,6.7,'11111222,11111222,11111222' 
TCOON,ioos:station:TCOON:031:1,2009-05-03T16:00:00Z,28.4073,-96.7122,0.0,6.2,136.0,6.9,'11111222,11111222,11111222' 
TCOON,ioos:station:TCOON:031:1,2009-05-03T17:00:00Z,28.4073,-96.7122,0.0,8.1,133.0,9.5,'11111222,11111222,11111222' 
TCOON,ioos:station:TCOON:031:1,2009-05-03T18:00:00Z,28.4073,-96.7122,0.0,8.3,134.0,9.7,'11111222,11111222,11111222' 
TCOON,ioos:station:TCOON:031:1,2009-05-03T19:00:00Z,28.4073,-96.7122,0.0,8.7,135.0,10.1,'11111222,11111222,11111222' 
TCOON,ioos:station:TCOON:031:1,2009-05-03T20:00:00Z,28.4073,-96.7122,0.0,7.7,129.0,9.3,'11111222,11111222,11111222' 
TCOON,ioos:station:TCOON:031:1,2009-05-03T21:00:00Z,28.4073,-96.7122,0.0,6.3,130.0,7.5,'11111222,11111222,11111222' 
TCOON,ioos:station:TCOON:031:1,2009-05-03T22:00:00Z,28.4073,-96.7122,0.0,6.8,126.0,8.4,'11111222,11111222,11111222' 
TCOON,ioos:station:TCOON:031:1,2009-05-03T23:00:00Z,28.4073,-96.7122,0.0,5.7,126.0,7.7,'11111222,11111222,11111222' 
TCOON,ioos:station:TCOON:031:1,2009-05-04T00:00:00Z,28.4073,-96.7122,0.0,5.5,112.0,6.2,'11111222,11111222,11111222' 
TCOON,ioos:station:TCOON:031:1,2009-05-04T01:00:00Z,28.4073,-96.7122,0.0,3.7,110.0,5.1,'11111222,11111222,11111222' 
TCOON,ioos:station:TCOON:031:1,2009-05-04T02:00:00Z,28.4073,-96.7122,0.0,2.1,78.0,3.0,'11111222,11111222,11111222' 
TCOON,ioos:station:TCOON:031:1,2009-05-04T03:00:00Z,28.4073,-96.7122,0.0,2.8,27.0,3.1,'11111222,11111222,11111222' 
TCOON,ioos:station:TCOON:031:1,2009-05-04T04:00:00Z,28.4073,-96.7122,0.0,1.7,39.0,3.2,'11111222,11111222,11111222' 
TCOON,ioos:station:TCOON:031:1,2009-05-04T05:00:00Z,28.4073,-96.7122,0.0,1.9,69.0,2.5,'11111222,11111222,11111222' 
TCOON,ioos:station:TCOON:031:1,2009-05-04T06:00:00Z,28.4073,-96.7122,0.0,1.1,71.0,1.8,'11111222,11111222,11111222' 
TCOON,ioos:station:TCOON:031:1,2009-05-04T07:00:00Z,28.4073,-96.7122,0.0,1.7,80.0,2.5,'11111222,11111222,11111222' 
TCOON,ioos:station:TCOON:031:1,2009-05-04T08:00:00Z,28.4073,-96.7122,0.0,1.6,30.0,1.7,'11111222,11111222,11111222' 
TCOON,ioos:station:TCOON:031:1,2009-05-04T09:00:00Z,28.4073,-96.7122,0.0,4.5,10.0,5.4,'11111222,11111222,11111222' 
TCOON,ioos:station:TCOON:031:1,2009-05-04T10:00:00Z,28.4073,-96.7122,0.0,5.5,348.0,7.3,'11111222,11111222,11111222' 
TCOON,ioos:station:TCOON:031:1,2009-05-04T11:00:00Z,28.4073,-96.7122,0.0,6.4,354.0,8.7,'11111222,11111222,11111222' 
TCOON,ioos:station:TCOON:031:1,2009-05-04T12:00:00Z,28.4073,-96.7122,0.0,5.9,350.0,8.2,'11111222,11111222,11111222' 
TCOON,ioos:station:TCOON:031:1,2009-05-04T13:00:00Z,28.4073,-96.7122,0.0,5.6,356.0,8.0,'11111222,11111222,11111222' 
TCOON,ioos:station:TCOON:031:1,2009-05-04T14:00:00Z,28.4073,-96.7122,0.0,5.1,4.0,8.7,'11111222,11111222,11111222' 
TCOON,ioos:station:TCOON:031:1,2009-05-04T15:00:00Z,28.4073,-96.7122,0.0,4.2,360.0,7.5,'11111222,11144222,11111222' 
TCOON,ioos:station:TCOON:031:1,2009-05-04T16:00:00Z,28.4073,-96.7122,0.0,3.6,36.0,5.1,'11111222,11111222,11111222' 
TCOON,ioos:station:TCOON:031:1,2009-05-04T17:00:00Z,28.4073,-96.7122,0.0,3.7,33.0,5.2,'11111222,11111222,11111222' 
TCOON,ioos:station:TCOON:031:1,2009-05-04T18:00:00Z,28.4073,-96.7122,0.0,3.2,71.0,4.7,'11111222,11111222,11111222' 
TCOON,ioos:station:TCOON:031:1,2009-05-04T19:00:00Z,28.4073,-96.7122,0.0,3.1,45.0,4.5,'11111222,11111222,11111222' 
TCOON,ioos:station:TCOON:031:1,2009-05-04T20:00:00Z,28.4073,-96.7122,0.0,4.2,108.0,5.3,'11111222,11111222,11111222' 
TCOON,ioos:station:TCOON:031:1,2009-05-04T21:00:00Z,28.4073,-96.7122,0.0,4.9,86.0,6.8,'11111222,11111222,11111222' 
TCOON,ioos:station:TCOON:031:1,2009-05-04T22:00:00Z,28.4073,-96.7122,0.0,4.4,96.0,6.3,'11111222,11111222,11111222' 
TCOON,ioos:station:TCOON:031:1,2009-05-04T23:00:00Z,28.4073,-96.7122,0.0,5.1,84.0,7.2,'11111222,11111222,11111222' 
TCOON,ioos:station:TCOON:031:1,2009-05-05T00:00:00Z,28.4073,-96.7122,0.0,5.0,82.0,7.1,'11111222,11111222,11111222' 
TCOON,ioos:station:TCOON:031:1,2009-05-05T01:00:00Z,28.4073,-96.7122,0.0,4.9,85.0,6.5,'11111222,11111222,11111222' 
TCOON,ioos:station:TCOON:031:1,2009-05-05T02:00:00Z,28.4073,-96.7122,0.0,4.9,94.0,6.2,'11111222,11111222,11111222' 
TCOON,ioos:station:TCOON:031:1,2009-05-05T03:00:00Z,28.4073,-96.7122,0.0,3.0,103.0,4.4,'11111222,11111222,11111222' 
TCOON,ioos:station:TCOON:031:1,2009-05-05T04:00:00Z,28.4073,-96.7122,0.0,3.4,96.0,3.9,'11111222,11111222,11111222' 
TCOON,ioos:station:TCOON:031:1,2009-05-05T05:00:00Z,28.4073,-96.7122,0.0,4.2,105.0,5.5,'11111222,11111222,11111222' 
TCOON,ioos:station:TCOON:031:1,2009-05-05T06:00:00Z,28.4073,-96.7122,0.0,3.4,96.0,4.7,'11111222,11111222,11111222' 
TCOON,ioos:station:TCOON:031:1,2009-05-05T07:00:00Z,28.4073,-96.7122,0.0,4.0,95.0,5.0,'11111222,11111222,11111222' 
TCOON,ioos:station:TCOON:031:1,2009-05-05T08:00:00Z,28.4073,-96.7122,0.0,3.7,100.0,5.1,'11111222,11111222,11111222' 
TCOON,ioos:station:TCOON:031:1,2009-05-05T09:00:00Z,28.4073,-96.7122,0.0,4.6,109.0,6.1,'11111222,11111222,11111222' 
TCOON,ioos:station:TCOON:031:1,2009-05-05T10:00:00Z,28.4073,-96.7122,0.0,3.9,99.0,5.4,'11111222,11111222,11111222' 
TCOON,ioos:station:TCOON:031:1,2009-05-05T11:00:00Z,28.4073,-96.7122,0.0,2.8,98.0,4.0,'11111222,11111222,11111222' 
TCOON,ioos:station:TCOON:031:1,2009-05-05T12:00:00Z,28.4073,-96.7122,0.0,4.1,120.0,4.9,'11111222,11111222,11111222' 
TCOON,ioos:station:TCOON:031:1,2009-05-05T13:00:00Z,28.4073,-96.7122,0.0,7.3,134.0,8.4,'11111222,11111222,11111222' 
TCOON,ioos:station:TCOON:031:1,2009-05-05T14:00:00Z,28.4073,-96.7122,0.0,7.0,125.0,8.9,'11111222,11111222,11111222' 
TCOON,ioos:station:TCOON:031:1,2009-05-05T15:00:00Z,28.4073,-96.7122,0.0,6.7,128.0,8.2,'11111222,11111222,11111222' 
TCOON,ioos:station:TCOON:031:1,2009-05-05T16:00:00Z,28.4073,-96.7122,0.0,7.0,130.0,8.8,'11111222,11111222,11111222' 
TCOON,ioos:station:TCOON:031:1,2009-05-05T17:00:00Z,28.4073,-96.7122,0.0,7.7,139.0,9.4,'11111222,11111222,11111222' 
TCOON,ioos:station:TCOON:031:1,2009-05-05T18:00:00Z,28.4073,-96.7122,0.0,7.8,135.0,9.1,'11111222,11111222,11111222' 
TCOON,ioos:station:TCOON:031:1,2009-05-05T19:00:00Z,28.4073,-96.7122,0.0,10.2,127.0,11.0,'11111222,11111222,11111222' 
TCOON,ioos:station:TCOON:031:1,2009-05-05T20:00:00Z,28.4073,-96.7122,0.0,8.9,135.0,10.6,'11111222,11111222,11111222' 
TCOON,ioos:station:TCOON:031:1,2009-05-05T21:00:00Z,28.4073,-96.7122,0.0,10.7,137.0,12.7,'11111222,11111222,11111222' 
TCOON,ioos:station:TCOON:031:1,2009-05-05T22:00:00Z,28.4073,-96.7122,0.0,8.9,131.0,11.7,'11111222,11111222,11111222' 
TCOON,ioos:station:TCOON:031:1,2009-05-05T23:00:00Z,28.4073,-96.7122,0.0,8.3,131.0,10.6,'11111222,11111222,11111222' 
TCOON,ioos:station:TCOON:031:1,2009-05-06T00:00:00Z,28.4073,-96.7122,0.0,7.1,125.0,9.1,'11111222,11111222,11111222' 
TCOON,ioos:station:TCOON:031:1,2009-05-06T01:00:00Z,28.4073,-96.7122,0.0,6.5,117.0,7.7,'11111222,11111222,11111222' 
TCOON,ioos:station:TCOON:031:1,2009-05-06T02:00:00Z,28.4073,-96.7122,0.0,7.6,117.0,8.7,'11111222,11111222,11111222' 
TCOON,ioos:station:TCOON:031:1,2009-05-06T03:00:00Z,28.4073,-96.7122,0.0,7.2,116.0,9.4,'11111222,11111222,11111222' 
TCOON,ioos:station:TCOON:031:1,2009-05-06T04:00:00Z,28.4073,-96.7122,0.0,7.4,123.0,9.0,'11111222,11111222,11111222' 
TCOON,ioos:station:TCOON:031:1,2009-05-06T05:00:00Z,28.4073,-96.7122,0.0,7.5,118.0,10.3,'11111222,11111222,11111222' 
TCOON,ioos:station:TCOON:031:1,2009-05-06T06:00:00Z,28.4073,-96.7122,0.0,7.8,126.0,10.5,'11111222,11111222,11111222' 
TCOON,ioos:station:TCOON:031:1,2009-05-06T07:00:00Z,28.4073,-96.7122,0.0,7.9,128.0,9.0,'11111222,11111222,11111222' 
TCOON,ioos:station:TCOON:031:1,2009-05-06T08:00:00Z,28.4073,-96.7122,0.0,8.7,130.0,11.4,'11111222,11111222,11111222' 
TCOON,ioos:station:TCOON:031:1,2009-05-06T09:00:00Z,28.4073,-96.7122,0.0,7.8,133.0,9.4,'11111222,11111222,11111222' 
TCOON,ioos:station:TCOON:031:1,2009-05-06T10:00:00Z,28.4073,-96.7122,0.0,9.0,128.0,10.3,'11111222,11111222,11111222' 
TCOON,ioos:station:TCOON:031:1,2009-05-06T11:00:00Z,28.4073,-96.7122,0.0,8.9,134.0,9.8,'11111222,11111222,11111222' 
TCOON,ioos:station:TCOON:031:1,2009-05-06T12:00:00Z,28.4073,-96.7122,0.0,8.5,133.0,10.0,'11111222,11111222,11111222' 
TCOON,ioos:station:TCOON:031:1,2009-05-06T13:00:00Z,28.4073,-96.7122,0.0,9.4,132.0,10.7,'11111222,11111222,11111222' 
TCOON,ioos:station:TCOON:031:1,2009-05-06T14:00:00Z,28.4073,-96.7122,0.0,8.7,137.0,9.7,'11111222,11111222,11111222' 
TCOON,ioos:station:TCOON:031:1,2009-05-06T15:00:00Z,28.4073,-96.7122,0.0,8.8,130.0,10.3,'11111222,11111222,11111222' 
TCOON,ioos:station:TCOON:031:1,2009-05-06T16:00:00Z,28.4073,-96.7122,0.0,7.7,135.0,8.7,'11111222,11111222,11111222' 
TCOON,ioos:station:TCOON:031:1,2009-05-06T17:00:00Z,28.4073,-96.7122,0.0,7.3,128.0,8.7,'11111222,11111222,11111222' 
TCOON,ioos:station:TCOON:031:1,2009-05-06T18:00:00Z,28.4073,-96.7122,0.0,9.6,134.0,10.9,'11111222,11111222,11111222' 
TCOON,ioos:station:TCOON:031:1,2009-05-06T19:00:00Z,28.4073,-96.7122,0.0,10.1,131.0,12.4,'11111222,11111222,11111222' 
TCOON,ioos:station:TCOON:031:1,2009-05-06T20:00:00Z,28.4073,-96.7122,0.0,10.2,137.0,12.4,'11111222,11111222,11111222' 
TCOON,ioos:station:TCOON:031:1,2009-05-06T21:00:00Z,28.4073,-96.7122,0.0,9.3,130.0,12.0,'11111222,11111222,11111222' 
TCOON,ioos:station:TCOON:031:1,2009-05-06T22:00:00Z,28.4073,-96.7122,0.0,9.7,128.0,11.7,'11111222,11111222,11111222' 
TCOON,ioos:station:TCOON:031:1,2009-05-06T23:00:00Z,28.4073,-96.7122,0.0,8.0,121.0,10.7,'11111222,11111222,11111222' 
TCOON,ioos:station:TCOON:031:1,2009-05-07T00:00:00Z,28.4073,-96.7122,0.0,7.5,115.0,9.7,'11111222,11111222,11111222' 
TCOON,ioos:station:TCOON:031:1,2009-05-07T01:00:00Z,28.4073,-96.7122,0.0,5.7,110.0,7.8,'11111222,11111222,11111222' 
TCOON,ioos:station:TCOON:031:1,2009-05-07T02:00:00Z,28.4073,-96.7122,0.0,4.1,102.0,5.7,'11111222,11111222,11111222' 
TCOON,ioos:station:TCOON:031:1,2009-05-07T03:00:00Z,28.4073,-96.7122,0.0,6.1,108.0,7.5,'11111222,11111222,11111222' 
TCOON,ioos:station:TCOON:031:1,2009-05-07T04:00:00Z,28.4073,-96.7122,0.0,6.9,112.0,8.6,'11111222,11111222,11111222' 
TCOON,ioos:station:TCOON:031:1,2009-05-07T05:00:00Z,28.4073,-96.7122,0.0,6.9,117.0,8.3,'11111222,11111222,11111222' 
TCOON,ioos:station:TCOON:031:1,2009-05-07T06:00:00Z,28.4073,-96.7122,0.0,7.7,125.0,8.6,'11111222,11111222,11111222' 
TCOON,ioos:station:TCOON:031:1,2009-05-07T07:00:00Z,28.4073,-96.7122,0.0,7.0,123.0,8.2,'11111222,11111222,11111222' 
TCOON,ioos:station:TCOON:031:1,2009-05-07T08:00:00Z,28.4073,-96.7122,0.0,6.7,122.0,7.9,'11111222,11111222,11111222' 
TCOON,ioos:station:TCOON:031:1,2009-05-07T09:00:00Z,28.4073,-96.7122,0.0,5.2,112.0,6.4,'11111222,11111222,11111222' 
TCOON,ioos:station:TCOON:031:1,2009-05-07T10:00:00Z,28.4073,-96.7122,0.0,5.9,113.0,6.1,'11111222,11111222,11111222' 
TCOON,ioos:station:TCOON:031:1,2009-05-07T11:00:00Z,28.4073,-96.7122,0.0,4.3,109.0,6.2,'11111222,11111222,11111222' 
TCOON,ioos:station:TCOON:031:1,2009-05-07T12:00:00Z,28.4073,-96.7122,0.0,3.9,120.0,4.9,'11111222,11111222,11111222' 
TCOON,ioos:station:TCOON:031:1,2009-05-07T13:00:00Z,28.4073,-96.7122,0.0,4.8,122.0,7.5,'11111222,11111222,11111222' 
TCOON,ioos:station:TCOON:031:1,2009-05-07T14:00:00Z,28.4073,-96.7122,0.0,7.0,114.0,8.0,'11111222,11111222,11111222' 
TCOON,ioos:station:TCOON:031:1,2009-05-07T15:00:00Z,28.4073,-96.7122,0.0,8.4,117.0,9.8,'11111222,11111222,11111222' 
TCOON,ioos:station:TCOON:031:1,2009-05-07T16:00:00Z,28.4073,-96.7122,0.0,7.3,127.0,9.1,'11111222,11111222,11111222' 
TCOON,ioos:station:TCOON:031:1,2009-05-07T17:00:00Z,28.4073,-96.7122,0.0,8.5,132.0,10.0,'11111222,11111222,11111222' 
TCOON,ioos:station:TCOON:031:1,2009-05-07T18:00:00Z,28.4073,-96.7122,0.0,7.2,128.0,9.5,'11111222,11111222,11111222' 
TCOON,ioos:station:TCOON:031:1,2009-05-07T19:00:00Z,28.4073,-96.7122,0.0,7.5,125.0,10.2,'11111222,11111222,11111222' 
TCOON,ioos:station:TCOON:031:1,2009-05-07T20:00:00Z,28.4073,-96.7122,0.0,8.3,123.0,9.9,'11111222,11111222,11111222' 
TCOON,ioos:station:TCOON:031:1,2009-05-07T21:00:00Z,28.4073,-96.7122,0.0,8.2,126.0,10.9,'11111222,11111222,11111222' 
TCOON,ioos:station:TCOON:031:1,2009-05-07T22:00:00Z,28.4073,-96.7122,0.0,9.2,122.0,11.0,'11111222,11111222,11111222' 
TCOON,ioos:station:TCOON:031:1,2009-05-07T23:00:00Z,28.4073,-96.7122,0.0,7.4,105.0,9.8,'11111222,11111222,11111222' 
TCOON,ioos:station:TCOON:031:1,2009-05-08T00:00:00Z,28.4073,-96.7122,0.0,8.0,105.0,9.8,'11111222,11111222,11111222' 
TCOON,ioos:station:TCOON:031:1,2009-05-08T01:00:00Z,28.4073,-96.7122,0.0,6.6,108.0,10.1,'11111222,11111222,11111222' 
TCOON,ioos:station:TCOON:031:1,2009-05-08T02:00:00Z,28.4073,-96.7122,0.0,7.7,114.0,9.2,'11111222,11111222,11111222' 
TCOON,ioos:station:TCOON:031:1,2009-05-08T03:00:00Z,28.4073,-96.7122,0.0,6.5,107.0,9.1,'11111222,11111222,11111222' 
TCOON,ioos:station:TCOON:031:1,2009-05-08T04:00:00Z,28.4073,-96.7122,0.0,9.0,116.0,10.3,'11111222,11111222,11111222' 
TCOON,ioos:station:TCOON:031:1,2009-05-08T05:00:00Z,28.4073,-96.7122,0.0,9.6,121.0,10.6,'11111222,11111222,11111222' 
TCOON,ioos:station:TCOON:031:1,2009-05-08T06:00:00Z,28.4073,-96.7122,0.0,7.9,115.0,11.1,'11111222,11111222,11111222' 
TCOON,ioos:station:TCOON:031:1,2009-05-08T07:00:00Z,28.4073,-96.7122,0.0,9.6,122.0,12.0,'11111222,11111222,11111222' 
TCOON,ioos:station:TCOON:031:1,2009-05-08T08:00:00Z,28.4073,-96.7122,0.0,9.4,120.0,11.8,'11111222,11111222,11111222' 
TCOON,ioos:station:TCOON:031:1,2009-05-08T09:00:00Z,28.4073,-96.7122,0.0,9.8,132.0,12.6,'11111222,11111222,11111222' 
TCOON,ioos:station:TCOON:031:1,2009-05-08T10:00:00Z,28.4073,-96.7122,0.0,9.9,134.0,11.0,'11111222,11111222,11111222' 
TCOON,ioos:station:TCOON:031:1,2009-05-08T11:00:00Z,28.4073,-96.7122,0.0,9.4,134.0,12.2,'11111222,11111222,11111222' 
TCOON,ioos:station:TCOON:031:1,2009-05-08T12:00:00Z,28.4073,-96.7122,0.0,8.2,139.0,10.6,'11111222,11111222,11111222' 
TCOON,ioos:station:TCOON:031:1,2009-05-08T13:00:00Z,28.4073,-96.7122,0.0,8.5,128.0,9.8,'11111222,11111222,11111222' 
TCOON,ioos:station:TCOON:031:1,2009-05-08T14:00:00Z,28.4073,-96.7122,0.0,9.6,140.0,10.6,'11111222,11111222,11111222' 
TCOON,ioos:station:TCOON:031:1,2009-05-08T15:00:00Z,28.4073,-96.7122,0.0,10.0,132.0,11.5,'11111222,11111222,11111222' 
TCOON,ioos:station:TCOON:031:1,2009-05-08T16:00:00Z,28.4073,-96.7122,0.0,10.1,139.0,11.2,'11111222,11111222,11111222' 
TCOON,ioos:station:TCOON:031:1,2009-05-08T17:00:00Z,28.4073,-96.7122,0.0,10.3,142.0,12.7,'11111222,11111222,11111222' 
TCOON,ioos:station:TCOON:031:1,2009-05-08T18:00:00Z,28.4073,-96.7122,0.0,11.2,138.0,13.0,'11111222,11111222,11111222' 
TCOON,ioos:station:TCOON:031:1,2009-05-08T19:00:00Z,28.4073,-96.7122,0.0,10.7,146.0,12.6,'11111222,11111222,11111222' 
TCOON,ioos:station:TCOON:031:1,2009-05-08T20:00:00Z,28.4073,-96.7122,0.0,11.2,145.0,12.7,'11111222,11111222,11111222' 
TCOON,ioos:station:TCOON:031:1,2009-05-08T21:00:00Z,28.4073,-96.7122,0.0,9.9,136.0,11.3,'11111222,11111222,11111222' 
TCOON,ioos:station:TCOON:031:1,2009-05-08T22:00:00Z,28.4073,-96.7122,0.0,10.3,138.0,12.8,'11111222,11111222,11111222' 
TCOON,ioos:station:TCOON:031:1,2009-05-08T23:00:00Z,28.4073,-96.7122,0.0,10.6,131.0,12.7,'11111222,11111222,11111222' 
TCOON,ioos:station:TCOON:031:1,2009-05-09T00:00:00Z,28.4073,-96.7122,0.0,8.5,119.0,10.0,'11111222,11111222,11111222' 
TCOON,ioos:station:TCOON:031:1,2009-05-09T01:00:00Z,28.4073,-96.7122,0.0,10.5,117.0,11.5,'11111222,11111222,11111222' 
TCOON,ioos:station:TCOON:031:1,2009-05-09T02:00:00Z,28.4073,-96.7122,0.0,8.3,117.0,11.1,'11111222,11111222,11111222' 
TCOON,ioos:station:TCOON:031:1,2009-05-09T03:00:00Z,28.4073,-96.7122,0.0,8.7,116.0,10.2,'11111222,11111222,11111222' 
TCOON,ioos:station:TCOON:031:1,2009-05-09T04:00:00Z,28.4073,-96.7122,0.0,6.7,112.0,10.6,'11111222,11111222,11111222' 
TCOON,ioos:station:TCOON:031:1,2009-05-09T05:00:00Z,28.4073,-96.7122,0.0,7.6,117.0,9.1,'11111222,11111222,11111222' 
TCOON,ioos:station:TCOON:031:1,2009-05-09T06:00:00Z,28.4073,-96.7122,0.0,8.2,123.0,10.4,'11111222,11111222,11111222' 
TCOON,ioos:station:TCOON:031:1,2009-05-09T07:00:00Z,28.4073,-96.7122,0.0,10.9,126.0,12.8,'11111222,11111222,11111222' 
TCOON,ioos:station:TCOON:031:1,2009-05-09T08:00:00Z,28.4073,-96.7122,0.0,10.7,132.0,12.6,'11111222,11111222,11111222' 
TCOON,ioos:station:TCOON:031:1,2009-05-09T09:00:00Z,28.4073,-96.7122,0.0,7.1,135.0,9.7,'11111222,11111222,11111222' 
TCOON,ioos:station:TCOON:031:1,2009-05-09T10:00:00Z,28.4073,-96.7122,0.0,9.8,145.0,11.8,'11111222,11111222,11111222' 
TCOON,ioos:station:TCOON:031:1,2009-05-09T11:00:00Z,28.4073,-96.7122,0.0,8.9,133.0,11.9,'11111222,11111222,11111222' 